Weather in Ochamchira

Abkhazia     42°42′29″N   41°27′58″E
temp.,
°C
wind,
m/s
gust,
m/s
humid.,
%
clouds,
%
prec.,
mm/h
press.,
hPa
HPBL,
m
30 november, tue
tue3000:00+17ese2457100 0.0 100955
03:00+17ene5857100 0.0 100796
06:00+17w3462100 0.0 100878
09:00+15nne2384100 0.6 101285
12:00+16n2377100 0.1 1011308
15:00+16e267712 0.5 1005163
18:00+15e26754 0.1 99985
21:00+17nw81163100 0.1 998321
1 december, wed
wed100:00+12wnw91683100 1.3 1004895
03:00+10sw1390100 7.1 1009306
06:00+9wnw61078100 11.6 1011974
09:00+9nw1380100 13.2 1013363
12:00+9wnw2373100 0.2 1012594
15:00+9w2376100 1.1 1013443
18:00+8n227968 0.5 1014193
21:00+7ne228095 0.7 1015128
2 december, thu
thu200:00+6nne3489100 1.6 1017277
03:00+6se1183100 1.9 101749
06:00+5e3590100 3.0 1018168
09:00+6e239169 4.1 1021159
12:00+8s118371 1.1 1022336
15:00+10sse11738 1.1 1022566
18:00+7e23875 0.0 102378
21:00+6e24800 0.0 102385
3 december, fri
fri300:00+5ne23680 0.0 102149
03:00+5ne22635 0.0 102041
06:00+6ene2259100 0.0 101932
09:00+8ene115685 0.0 101932
12:00+12ssw114847 0.0 1018169
15:00+12sw015444 0.0 101871
18:00+9ne22625 0.0 101925
21:00+8ne12611 0.0 102026
4 december, sat
sat400:00+8ene1159100 0.0 101926
03:00+8ene1256100 0.0 101929
06:00+7ene115663 0.0 101727
09:00+9ne12550 0.0 101730
12:00+13s11475 0.0 1015169
15:00+14ssw115851 0.0 101227
18:00+11ne2259100 0.0 101122
21:00+10ne1150100 0.0 101028